カタログに戻る

STARLINK-38074

運用中通信SSO
NORAD 69741·PAYLOAD·🇺🇸 United States

打ち上げ Jul 2, 2026 から Vandenberg Space Force Base

Loading…

次のパス (今後24時間)

TLE

最新Source: CelesTrak SupGP

元期: Sep 15, 2026, 04:01 UTC

1 69741C 26150C   26258.16784722 -.00049412  00000+0 -15334-2 0  2588
2 69741  97.2849  97.2208 0001751  93.1588 210.7703 15.33474080    10

AllMySatでSTARLINK-38074をリアルタイム追跡

Download on the App Store